Location: ?????
(31.8092°N, 35.2590°E)
Time: 02:55:47
(UTC+00:00)

Resurs 01 Rocket - Pass Details

Date: 20 June 2021
Orbit: 635 x 643 km, 97.9° (Epoch: 04 August)

Event Time Altitude Azimuth Distance (km) Brightness Sun altitude
Exits shadow 17:44:37 15° 123° (ESE) 1,691 3.1 -11.1°
Maximum altitude 17:47:25 29° 72° (ENE) 1,174 2.7 -11.5°
Drops below altitude 10° 17:51:12 10° 13° (NNE) 2,024 4.5 -12.2°
Sets 17:53:37 0° 2° (N) 2,936 5.6 -12.6°
